Tracking 28799 objects as of 18-Apr-2024
HD Live streaming from Space Station
objects crossing your sky now

FENGYUN 1C DEB

Track FENGYUN 1C DEB now!
10-day predictions


NORAD ID: 30666
Int'l Code: 1999-025APY
Perigee: 852.5 km
Apogee: 939.8 km
Inclination: 98.8 °
Period: 102.8 minutes
Semi major axis: 7267 km
RCS: 0.0336 m2 (small)
Launch date: May 10, 1999
Source: People's Republic of China (PRC)
Launch site: Taiyaun Space Center, China (TSC)

Note: This is SATELLITE DEBRIS
Your satellite tracking list
Your tracking list is empty




NASA's NSSDC Master Catalog

Two Line Element Set (TLE):
1 30666U 99025APY 24108.56256948  .00001026  00000-0  69706-3 0  9996
2 30666  98.7802 107.1933 0060030  31.7176  92.0924 14.01385070876449
Source of the keplerian elements: AFSPC